Regional Weather Roundup
Issued by NWS Midland/Odessa, TX

Home | Current Version | Previous Version | Text Only | Print | Product List | Glossary On
Versions: 1 2 3 4 5 6 7 8 9 10 11 12 13 14 15 16 17 18 19 20 21 22 23 24 25 26 27 28 29 30 31 32 33 34 35 36 37 38 39 40 41 42 43 44 45 46 47 48 49 50
000
ASUS44 KMAF 210901
RWRMAF
MIDLAND AREA WEATHER ROUNDUP
NATIONAL WEATHER SERVICE MIDLAND TX
400 AM CDT THU SEP 21 2017

...IN SOUTHWEST TEXAS AND SOUTHEAST NEW MEXICO...

CITY           SKY/WX    TMP DP  RH WIND       PRES   REMARKS
ALPINE         CLEAR     71  51  48 SW5       30.11S
ANDREWS        MOCLDY    74  60  62 S7        29.94F
ARTESIA        CLEAR     68  41  37 SW12      29.92F
BIG SPRING     PTCLDY    79  65  62 S12       29.93S
CARLSBAD       CLEAR     70  45  40 S12       29.90F
DRYDEN           N/A     74  62  66 CALM      29.90F
FORT STOCKTON  CLEAR     73  56  54 S8        29.94F
GUAD PASS      CLEAR     72  43  35 SW12      30.08F
HOBBS          CLEAR     64  54  68 SW8       29.95S
MARFA          CLEAR     58  52  80 N6        30.10F
MIDLAND AIRPK  CLEAR     81  64  57 S9G17     29.93S
MIDLAND INTL   PTCLDY    80  64  58 S12       29.92F
ODESSA         MOCLDY    79  65  62 S12       29.94S
PECOS          CLEAR     69  54  59 CALM      29.89F
PRESIDIO       FAIR      77  59  54 CALM      29.98F
SEMINOLE       CLEAR     66  56  70 S5        29.95F
SNYDER         CLEAR     76  65  66 S8        29.91S
WINK           CLEAR     75  56  51 SE9       29.89F
$$
...OTHER STATIONS IN TEXAS...

CITY           SKY/WX    TMP DP  RH WIND       PRES   REMARKS
ABILENE        CLEAR     78  69  73 MISG      29.89S
AMARILLO       CLEAR     60  45  57 S10       29.90F
AUSTIN         PTCLDY    79  76  90 S6        29.93F
BROWNSVILLE    CLEAR     81  78  91 SE7       29.89F
CORPUS CHRISTI CLOUDY    81  78  91 S7        29.89F
DALLAS FTW     CLOUDY    82  74  76 S15G23    29.88R
DEL RIO        CLOUDY    82  74  76 E9        29.87S
EL PASO        PTCLDY    74  47  38 S8        29.96S
HOUSTON INT    PTCLDY    79  77  94 S5        29.93F
LUBBOCK        CLEAR     65  56  72 SE5       29.92F
SAN ANGELO     CLEAR     80  65  59 S10       29.90S
SAN ANTONIO    MOCLDY    80  74  81 S10       29.94S
WACO           CLOUDY    80  74  81 S15       29.92R
WICHITA FALLS  NOT AVBL
$$
...OTHER LOCATIONS IN NEW MEXICO...

CITY           SKY/WX    TMP DP  RH WIND       PRES   REMARKS
ALAMOGORDO     CLEAR     68  39  34 S7        29.98S
ALBUQUERQUE    CLEAR     65  32  29 E5        30.03F
CANNON AFB     CLEAR     57  48  72 E6        29.96
CLOVIS         CLEAR     55  47  74 S6        29.95F
HOLLOMAN AFB   NOT AVBL
ROSWELL        CLEAR     66  40  38 W5        29.92S
RUIDOSO        CLEAR     63  39  42 W7        30.15F
SANTA FE       CLEAR     53  29  39 CALM      30.08S
TRUTH OR CONSE CLEAR     68  38  33 W5        30.00F
TUCUMCARI      CLEAR     61  43  51 W7        29.90F
$$




USA.gov is the U.S. government's official web portal to all federal, state and local government web resources and services.